Regional Weather Roundup
Issued by NWS

Home | Current Version | Previous Version | Graphics & Text | Print | Product List | Glossary On
Versions: 1 2 3 4 5 6 7 8 9 10 11 12 13 14 15 16 17 18 19 20 21 22 23 24 25 26 27 28 29 30 31 32 33 34 35 36 37 38 39 40 41 42 43 44 45 46 47 48 49 50
000
ASUS43 KMPX 261701
RWRMN
WEATHER ROUNDUP FOR MINNESOTA
NATIONAL WEATHER SERVICE TWIN CITIES/CHANHASSEN MN
1200 PM CDT TUE MAY 26 2015


NOTE: "FAIR" INDICATES FEW OR NO CLOUDS BELOW 12,000 FEET WITH NO
SIGNIFICANT WEATHER AND/OR OBSTRUCTIONS TO VISIBILITY. N/A MEANS
CURRENT SKY AND/OR WEATHER CONDITIONS ARE NOT AVAILABLE.

MNZ060>063-068>070-261800-
   Twin Cities Metro

CITY           SKY/WX    TMP DP  RH WIND       PRES   REMARKS
TWIN CITIES    LGT RAIN  57  55  93 N8G20     29.79F
ST PAUL        LGT RAIN  57  55  93 N5        29.80S
CRYSTAL        LGT RAIN  57  55  93 N8        29.78F FOG
BLAINE         LGT RAIN  57  57 100 N6        29.80F FOG
LAKEVILLE      LGT RAIN  59  57  94 N5        29.78S
EDEN PRAIRIE   LGT RAIN  57  55  93 N7        29.78S FOG
SOUTH ST PAUL  DRIZZLE   58  57  94 N7        29.79S
LAKE ELMO      DRIZZLE   57  57 100 N5        29.80S
$$
MNZ001>005-007-008-013>017-022>024-027-028-261800-
   Northwest Minnesota

CITY           SKY/WX    TMP DP  RH WIND       PRES   REMARKS
BEMIDJI        PTSUNNY   67  55  64 SE5       29.85F
HALLOCK        SUNNY     73  54  49 CALM      29.78S
ROSEAU         SUNNY     73  54  49 SW7       29.79F
WARROAD        SUNNY     73  57  56 SW8       29.79F
THIEF RVR FALL SUNNY     72  52  49 S13       29.81F
CROOKSTON      SUNNY     73  54  49 S16       29.81S
FOSSTON        MOSUNNY   68  52  56 S8        29.84F
DETROIT LAKES  PTSUNNY   68  52  56 S7        29.86S
MOORHEAD       MOSUNNY   68  54  60 S9        29.84S
PARK RAPIDS    PTSUNNY   69  50  50 E6        29.84F
MAHNOMEN       FAIR      67  51  57 S5        29.84S
$$
MNZ006-009>011-018-025>026-261800-
   North Central Minnesota

CITY           SKY/WX    TMP DP  RH WIND       PRES   REMARKS
BAUDETTE       MOSUNNY   72  51  47 SW9       29.81F
FLAG ISLAND    SUNNY     61  52  72 SE13      29.78F
INTL FALLS     MOSUNNY   69  51  52 S5        29.84F
WASKISH        MOSUNNY   68  57  68 CALM      29.83F
BIG FORK       PTSUNNY   70  55  60 CALM      29.86S
LONGVILLE      PTSUNNY   66  54  63 CALM      29.85S
GRAND RAPIDS   PTSUNNY   66  52  59 E3        29.85F
CRANE LAKE     MOSUNNY   66  54  63 S5        29.87S
COOK           MOSUNNY   68  54  60 E7        29.86F
WALKER         FAIR      62  52  70 SE5       29.86S
$$
MNZ012-019>021-037-261800-
   Northeast Minnesota

CITY           SKY/WX    TMP DP  RH WIND       PRES   REMARKS
DULUTH         PTSUNNY   60  53  77 E10       29.86F
ELY            MOSUNNY   66  48  52 SE5       29.86F
HIBBING        PTSUNNY   68  51  54 E8        29.85F
EVELETH        PTSUNNY   64  52  63 E9        29.86F
DULUTH HARBOR  CLOUDY    54  52  94 N8        29.88S
TWO HARBORS    PTSUNNY   63  55  77 E9        29.86S
SILVER BAY     PTSUNNY   63  54  72 E8        29.86S
GRAND MARAIS     N/A     52  48  86 W6        29.87S
G MARAIS ARPRT PTSUNNY   64  48  55 E10       29.88S
$$
MNZ029>031-032-039>041-046>048-054>057-064-261800-
   West Central Minnesota

CITY           SKY/WX    TMP DP  RH WIND       PRES   REMARKS
FERGUS FALLS   PTSUNNY   70  48  46 E5        29.85S
WHEATON        PTSUNNY   64  54  68 NE6       29.86S
MORRIS         PTSUNNY   68  55  64 NE7       29.83S
ALEXANDRIA     PTSUNNY   66  52  60 E12       29.84F
ELBOW LAKE     FAIR      68  53  58 NE7       29.84S
WADENA         PTSUNNY   66  54  63 NE7       29.84F
GLENWOOD       CLOUDY    64  55  72 N9        29.84F
APPLETON       CLOUDY    66  54  63 NE6       29.83S
BENSON         CLOUDY    64  54  68 E5        29.83F
ORTONVILLE     CLOUDY    64  54  68 N8        29.84F
MADISON        CLOUDY    63  54  72 N7        29.84S
WILLMAR        PTSUNNY   61  55  82 E10       29.83F
$$
MNZ033>034-036-042>043-049>051-058-059-261800-
   Central Minnesota

CITY           SKY/WX    TMP DP  RH WIND       PRES   REMARKS
ST CLOUD       CLOUDY    58  54  86 NE8       29.82S
SAUK CENTRE    PTSUNNY   63  54  72 NE9       29.83F
PAYNESVILLE    CLOUDY    56  52  88 N7        29.83S
AITKIN         CLOUDY    64  55  72 E7        29.84S
PINE RIVER     PTSUNNY   68  54  60 NE10      29.88S
BRAINERD       CLOUDY    64  54  69 NE9       29.85R
STAPLES        PTSUNNY   66  50  55 NE7       29.84S
LONG PRAIRIE   FAIR      63  52  67 NE8       29.84F
LITTLE FALLS   CLOUDY    61  52  72 NE6       29.83F
BUFFALO        CLOUDY    56  53  88 N6        29.82S
MAPLE LAKE     CLOUDY    58  56  92 NE5       29.82F
$$
MNZ037-044-045-052-053-261800-
   East Central Minnesota

CITY           SKY/WX    TMP DP  RH WIND       PRES   REMARKS
PRINCETON      CLOUDY    59  55  88 N8        29.82F
MORA           CLOUDY    55  50  82 E7        29.85S
CAMBRIDGE      CLOUDY    59  50  72 N6        29.80F
RUSH CITY      CLOUDY    57  54  91 NE8       29.82F
MOOSE LAKE     CLOUDY    55  55 100 NE8       29.84S
HINCKLEY       CLOUDY    57  54  88 N9        29.83F
CLOQUET        CLOUDY    59  52  77 E10       29.86F
MCGREGOR       CLOUDY    63  54  72 E9        29.86S
$$
MNZ071>073-080-081-089-090-097-098-261800-
   Southwest Minnesota

CITY           SKY/WX    TMP DP  RH WIND       PRES   REMARKS
MONTEVIDEO     CLOUDY    61  55  82 E8        29.83F
GRANITE FALLS  CLOUDY    59  53  80 N8        29.84S
CANBY          CLOUDY    61  54  78 N8        29.85S
MARSHALL       CLOUDY    57  52  82 N10       29.82S
REDWOOD FALLS  LGT RAIN  57  55  93 N7        29.81S FOG
OLIVIA         CLOUDY    54  50  87 NE10      29.81S
WINDOM         LGT RAIN  57  55  94 N8        29.81R
WORTHINGTON    CLOUDY    57  52  82 N8        29.81S
JACKSON        LGT RAIN  57  55  94 N8        29.81R
TRACY          LGT RAIN  57  55  95 N12       29.82S
SLAYTON        CLOUDY    55  54  95 N9        29.83R
$$
MNZ065>067-074>077-082>085-091>093-261800-
   South Central Minnesota

CITY           SKY/WX    TMP DP  RH WIND       PRES   REMARKS
MANKATO        CLOUDY    57  55  94 N8        29.78S
NEW ULM        RAIN      57  57 100 NE5       29.79R
ST JAMES       RAIN      59  57  94 N6        29.80S
FAIRMONT       CLOUDY    57  54  88 N8        29.78S
GLENCOE        LGT RAIN  56  56  99 N6        29.79F
FARIBAULT      LGT RAIN  63  61  94 CALM      29.78S
OWATONNA       RAIN      61  57  88 NW5       29.76F
WASECA         RAIN      59  55  88 CALM      29.78F
ALBERT LEA     LGT RAIN  63  61  94 NW5       29.76S
$$
MNZ078>079-086>088-094>096-261800-
   Southeast Minnesota

CITY           SKY/WX    TMP DP  RH WIND       PRES   REMARKS
ROCHESTER      LGT RAIN  62  60  93 N12       29.77F
RED WING       LGT RAIN  63  61  94 SE3       29.77F
STANTON        LGT RAIN  63  60  89 NE3       29.77S
DODGE CENTER   LGT RAIN  63  61  94 N9        29.76F
WINONA         LGT RAIN  61  59  94 E7        29.73F
AUSTIN         LGT RAIN  63  59  88 N8        29.75S
PRESTON        LGT RAIN  60  58  94 N8        29.75F
$$
ABBREVIATIONS USED IN REMARKS
   TC - TEMPERATURES IN CELSIUS
  WCI - WIND CHILL INDEX
   HX - HEAT INDEX
  VSB - VISIBILITY
$$



USA.gov is the U.S. government's official web portal to all federal, state and local government web resources and services.